CAPE
46 731 597 1051 948 1253 1140 1346 1224 1479 1471 1527 1709 1612 1485 1176 701 456 431 485 1412 1548 1716 1677 1731 1655 1739 1681 1625 1738 1527 512 559 745 969 1184 1336 1237 1356 1024 1286 1437 1586
287 902 801 1127 1066 1317 1300 1400 1565 1837 1655 1568 1765 1622 1474 1290 872 269 203 552 1175 1623 1691 1599 1739 1591 1768 1762 1823 1543 1156 683 1463 1235 1057 1071 940 1208 1032 1589 1566 1566 1674
410 1281 1272 1269 1464 1354 1610 1869 2043 1895 1729 1588 1668 1614 1671 1881 903 940 674 1206 1920 1492 1601 1630 1798 1804 1771 1720 1340 1555 1634 867 1111 1581 1224 1201 1402 1500 1003 1702 1684 1452 654
985 1254 1522 1653 1509 1436 1712 1817 1852 1670 1636 1816 1767 1801 1720 1906 1627 1232 1669 1791 1377 1475 1536 1713 1832 1792 1612 1092 1006 991 1433 980 1167 846 808 832 968 1203 1065 1855 850 1464 1980
1044 1300 1771 1749 1679 1756 1825 1695 1676 1605 1477 1510 1724 1655 1395 1553 1637 1496 1494 1700 1181 1295 993 1825 1793 1688 1530 802 563 586 576 700 1059 180 285 1027 1346 1516 1835 913 1464 1815 1821
1123 1396 1907 1752 1692 1743 1512 1157 1280 1325 1686 1903 1837 1820 1855 1734 1729 1646 1599 1868 1253 1239 1038 1844 1835 1793 1221 802 653 946 912 932 948 800 970 899 1275 1583 1380 1985 1887 1957 2004
1021 1406 1611 1785 1750 1609 1307 1603 1658 1778 1561 1689 1841 1825 1764 1650 1698 1762 1852 1636 827 1519 1785 1824 1818 1719 860 732 884 483 580 870 812 887 933 953 1651 1729 1795 1807 1979 1971 1108
726 1072 1542 1759 1716 1408 1372 2277 1707 1419 1443 1673 1949 1880 1780 1676 1696 1151 1801 1725 707 1715 1664 1594 1717 1752 1312 810 980 440 1010 1024 1190 1068 939 1017 1026 1349 1676 2035 1933 1809 1716
909 1064 1410 1563 1603 1351 1977 1279 1460 1445 1365 2029 1610 2052 1690 1739 1815 1399 1994 1791 1758 1226 1958 1434 1378 1311 886 546 628 743 929 937 883 1175 1012 1311 837 1053 1928 1919 2223 1904 2064
889 1017 964 1313 1343 1121 1549 1870 1548 1383 1525 1732 1848 1936 1589 1582 1586 1538 1401 2016 1712 1787 1277 1353 1393 1444 297 366 677 825 971 777 77 786 913 1461 1906 1671 1877 2031 2089 1751 2060
1035 824 869 843 943 785 942 1696 1651 1543 1207 1366 1769 1762 1539 984 1012 983 819 1973 1757 1453 1400 1433 1393 1227 536 212 91 309 691 594 784 1041 731 1436 1787 2019 2096 2137 2054 1638 2007
669 753 629 813 1061 1099 730 1415 782 1226 1376 969 1099 1482 1489 1037 909 914 488 1993 1754 1734 1356 1345 1165 863 240 115 116 450 661 412 205 899 857 1200 1212 2050 1894 1999 1817 1881 1810
512 722 661 669 998 1099 1138 815 347 751 770 1241 858 966 939 605 519 1118 588 1809 1409 1695 1032 1158 769 405 116 0 20 326 171 622 784 699 734 981 1190 2078 1725 1883 1682 2025 1701
436 554 612 443 667 1174 1137 1020 709 721 1078 828 707 871 949 580 0 727 673 806 715 713 457 393 445 298 6 0 327 159 115 332 596 359 490 763 713 1544 1644 1795 1834 1891 1852
427 547 572 591 551 1160 1273 1139 723 863 849 834 628 879 814 652 395 760 383 494 385 656 560 340 312 133 86 513 272 96 97 134 244 305 195 461 659 516 1854 1047 1587 1760 1950
445 630 684 712 714 1068 1373 1116 1074 948 430 729 756 525 868 956 640 920 611 720 203 277 292 51 11 169 219 155 81 55 75 76 99 203 156 174 901 668 558 1541 890 1883 1576
373 778 825 1021 1135 1306 1260 1085 863 932 510 431 493 494 490 907 615 639 703 488 376 361 325 120 6 82 56 24 1 0 0 5 66 77 0 1 74 350 703 945 1460 1502 1783
209 542 527 673 859 1265 1229 1083 1052 934 542 380 693 606 813 950 1226 735 671 391 400 385 329 251 36 0 1 0 0 0 0 0 1 137 134 2 0 116 212 784 852 1489 1359
326 493 535 464 360 770 752 487 520 628 307 667 964 1029 924 722 717 1028 613 722 522 267 318 130 47 0 0 0 0 0 0 0 4 10 4 29 57 232 325 299 603 823 896
470 543 653 649 518 583 939 505 296 488 460 659 863 1177 802 766 693 365 739 787 831 315 282 124 49 0 0 0 1 9 1 0 7 2 2 0 9 34 200 251 369 734 856
701 661 602 991 630 484 1101 568 289 427 574 206 501 941 864 867 795 303 508 612 755 498 249 189 67 32 3 0 23 63 29 33 18 20 21 3 5 34 111 223 111 307 685
1024 926 891 885 1094 882 926 854 609 310 448 356 526 710 1157 1215 1323 1015 713 643 542 492 361 142 132 234 91 12 82 38 5 75 101 86 60 50 30 56 44 102 15 190 277
1257 1164 1218 1159 1288 1244 1443 751 746 839 278 373 390 993 948 1035 1570 1315 919 795 506 712 499 356 297 113 71 200 99 0 7 7 60 170 122 110 43 59 51 20 89 135 135
1356 1413 1336 1559 1640 1834 1668 1408 912 784 682 563 261 794 669 449 658 1225 1482 990 870 1035 842 673 512 261 155 251 240 122 42 99 5 9 97 110 82 71 48 23 11 65 95
1441 1674 1589 1660 1796 1786 1753 1354 1413 969 1075 590 270 450 417 525 562 786 1013 1365 1063 980 871 997 744 379 224 2 31 192 107 83 146 95 39 54 60 70 36 32 14 10 30
1511 1821 2017 1969 1963 1911 1750 1850 1696 1496 1078 1054 333 284 667 659 875 1186 1331 1361 1394 1387 1151 773 773 767 439 319 139 263 107 124 78 66 72 60 12 34 57 22 7 19 15
CIN
-139 -56 -64 -32 -31 -15 -19 -11 -21 -10 -7 -3 0 0 0 -10 -21 -21 -20 -21 -3 0 0 0 0 0 0 0 0 0 -3 -44 -43 -26 -6 -1 0 -3 -1 -1 0 0 0
-144 -51 -60 -33 -29 -20 -20 -10 -10 -3 -2 -1 0 0 0 -6 -12 -12 -24 -14 -7 0 0 0 0 0 0 0 0 -4 -14 -32 -2 0 0 0 0 0 -3 0 0 0 0
-128 -36 -33 -31 -18 -22 -12 -5 0 0 0 0 0 0 0 0 -12 -4 -10 -3 0 0 0 0 0 0 0 -1 -14 -6 -2 -15 -11 -2 -6 -2 0 0 -9 0 0 -1 -24
-80 -47 -21 -11 -15 -16 -6 -3 0 0 0 0 -1 0 0 0 -1 -7 0 0 0 0 0 0 0 0 -1 -22 -16 -16 -6 -11 -3 -11 -13 -9 -1 0 -6 0 -20 -2 0
-64 -44 -10 -8 -7 -3 -1 -3 0 0 0 0 0 0 -1 0 0 -1 -1 0 0 0 -3 0 0 0 -1 -9 -20 -13 -14 -13 -6 -52 -50 -8 -1 0 0 -17 -2 0 0
-71 -46 -2 -4 -6 0 -5 -19 -9 -1 0 0 0 0 0 0 0 0 0 0 0 0 -1 0 0 0 -9 -11 -26 -16 -25 -14 -5 -17 -24 -19 -6 0 0 0 0 0 0
-85 -49 -19 -3 -1 -4 -11 -2 0 0 0 0 0 0 0 0 0 0 0 0 -12 0 0 0 0 -5 -8 -25 -37 -45 -18 -15 -26 -33 -31 -29 -1 -1 0 0 0 0 -21
-135 -83 -35 -4 -3 -17 -12 0 0 0 0 0 0 0 0 0 0 -1 0 0 -9 0 0 0 0 -4 -13 -29 -28 -28 -37 -27 -7 -37 -41 -34 -36 -12 0 0 0 0 0
-129 -103 -54 -26 -5 -12 0 -12 0 0 0 0 -1 0 0 0 0 -1 0 0 0 -2 0 -3 -4 -18 -39 -39 -19 -9 -51 -29 -25 -33 -38 -24 -55 -46 0 0 0 0 0
-125 -105 -96 -54 -39 -40 -6 0 -1 0 0 0 0 0 0 0 0 0 -4 0 0 0 -6 -8 -11 -14 -57 -46 -27 -20 -21 -30 -114 -65 -50 -32 -2 -1 0 0 0 -1 0
-108 -129 -101 -94 -67 -72 -53 -3 -2 0 -17 -8 -1 -2 -8 -28 -22 -28 -25 0 0 -1 -3 -4 -12 -19 -44 -54 -60 -32 -15 -36 -32 -29 -52 -39 -11 0 0 0 -1 -4 0
-138 -128 -127 -101 -68 -50 -73 -35 -63 -34 -24 -33 -22 -7 -8 -29 -33 -29 -45 0 0 0 -6 -3 -12 -46 -107 -121 -82 -52 -42 -63 -78 -50 -54 -38 -16 0 0 0 -3 -2 -1
-150 -150 -145 -126 -92 -64 -56 -73 -102 -66 -56 -37 -30 -17 -35 -40 -52 -31 -49 -2 -12 -4 -15 -13 -39 -61 -91 0 -131 -53 -64 -63 -47 -24 -17 -21 -27 0 -2 0 0 0 -3
-182 -170 -149 -138 -108 -67 -60 -67 -74 -75 -57 -44 -35 -34 -31 -42 0 -54 -50 -41 -34 -23 -35 -45 -61 -81 -93 0 -77 -76 -77 -61 -48 -87 -57 -21 -11 -16 -10 -1 0 0 0
-120 -141 -124 -121 -105 -60 -49 -54 -67 -54 -50 -35 -43 -35 -32 -38 -52 -43 -50 -45 -55 -27 -30 -50 -51 -110 -110 -61 -91 -101 -81 -78 -74 -77 -77 -45 -10 -12 0 -22 0 0 0
-69 -118 -109 -107 -114 -64 -48 -53 -46 -31 -60 -38 -40 -31 -25 -13 -31 -19 -20 -40 -49 -61 -63 -78 -102 -65 -72 -109 -133 -112 -86 -76 -64 -78 -95 -79 -11 -12 -14 -4 -19 0 -1
-70 -63 -66 -77 -67 -48 -38 -25 -39 -26 -41 -60 -49 -36 -31 -23 -26 -32 -16 -30 -33 -44 -50 -69 -129 -85 -108 -160 -22 -14 -12 -102 -57 -43 0 -144 -117 -70 -4 -12 -8 -2 0
-99 -105 -95 -68 -56 -33 -17 -24 -24 -27 -49 -50 -45 -37 -35 -27 -16 -19 -14 -25 -21 -32 -58 -65 -102 0 -148 0 0 0 0 0 -97 -15 -55 -27 -9 -94 -56 -2 -9 -4 -7
-122 -109 -116 -109 -92 -54 -54 -46 -27 -20 -57 -57 -55 -51 -43 -39 -30 -27 -26 -19 -27 -43 -50 -73 -93 0 0 0 0 0 0 0 -88 -113 -93 -95 -110 -43 -25 -11 -5 -14 -11
-114 -100 -88 -116 -124 -80 -57 -60 -66 -32 -30 -52 -46 -40 -49 -42 -45 -67 -34 -26 -19 -29 -45 -82 -83 0 0 0 -125 -128 -87 0 -124 -78 -80 0 -74 -39 -23 -40 -23 -4 -11
-129 -109 -93 -70 -116 -104 -55 -90 -86 -63 -35 -57 -51 -47 -50 -56 -50 -87 -54 -34 -27 -26 -53 -68 -92 -129 -77 0 -121 -78 -117 -83 -70 -67 -60 -101 -92 -45 -32 -21 -54 -42 -9
-145 -131 -104 -85 -73 -72 -61 -63 -74 -80 -75 -48 -47 -48 -34 -38 -33 -35 -43 -43 -32 -40 -47 -67 -70 -83 -83 -115 -71 -73 -100 -62 -37 -53 -48 -41 -57 -46 -46 -56 -123 -44 -32
-162 -146 -111 -82 -70 -63 -40 -49 -40 -25 -92 -80 -71 -34 -42 -27 -22 -29 -37 -39 -31 -22 -36 -49 -57 -58 -70 -48 -68 0 -77 -88 -80 -66 -44 -33 -74 -46 -27 -38 -72 -40 -34
-195 -160 -132 -87 -65 -38 -27 -24 -50 -67 -63 -81 -109 -54 -71 -78 -45 -30 -22 -39 -40 -23 -15 -28 -54 -74 -74 -18 -23 -46 -49 -30 -65 -65 -70 -62 -59 -55 -51 -44 -49 -43 -43
-205 -173 -145 -100 -78 -64 -42 -43 -24 -50 -42 -59 -111 -85 -98 -82 -72 -52 -44 -33 -35 -32 -21 -18 -37 -58 -101 -10 -89 -20 -35 -42 -20 -9 -12 -45 -57 -55 -54 -38 -75 -87 -57
-195 -154 -134 -118 -104 -89 -66 -47 -43 -39 -54 -41 -105 -119 -91 -80 -61 -53 -50 -54 -45 -34 -36 -32 -21 -25 -67 -75 -93 -20 -65 -17 -26 -36 -21 -10 -44 -75 -64 -73 -114 -83 -110
Wind_Speed
33 34 33 32 30 29 29 29 29 28 20 6 13 23 30 30 23 11 7 3 1 5 4 11 8 6 5 4 4 7 13 17 15 16 15 10 7 10 20 20 18 20 25
34 33 32 31 29 27 28 28 29 29 22 16 19 30 30 30 30 8 7 9 6 1 3 9 7 6 4 4 4 4 8 16 15 15 12 10 8 6 20 14 16 16 16
33 32 32 31 29 27 27 28 29 27 28 26 27 28 29 30 31 12 12 11 11 9 6 8 6 3 5 3 6 5 13 26 28 19 10 4 14 16 18 14 13 14 18
33 32 31 31 30 28 27 28 28 27 28 28 28 28 27 29 30 25 15 17 16 11 8 8 7 4 5 5 29 20 33 33 33 18 8 4 9 17 17 15 14 15 14
32 31 30 30 29 29 28 28 27 27 27 28 24 27 27 28 29 28 25 23 19 14 12 8 3 4 10 3 5 2 18 23 25 20 21 4 2 14 16 17 17 13 12
30 31 30 29 29 29 28 27 27 27 27 28 28 29 27 29 31 30 30 27 20 8 12 4 5 2 3 6 6 2 7 3 22 20 17 14 10 19 16 17 15 13 16
29 31 30 29 28 27 27 27 26 27 28 28 28 27 23 29 31 31 31 31 30 30 5 8 6 4 2 8 4 4 19 18 18 21 22 19 7 16 14 12 13 9 15
29 29 29 28 28 27 27 27 26 27 28 28 26 27 28 30 30 29 28 29 28 26 23 18 15 7 2 2 9 18 4 3 26 20 23 22 19 18 16 15 12 10 10
26 27 27 28 27 27 26 26 26 27 27 27 27 27 26 28 29 27 27 27 25 21 21 20 18 18 17 7 4 14 16 23 23 15 21 24 18 18 19 18 13 13 9
23 25 26 27 26 26 26 25 25 25 25 26 27 26 25 26 26 25 26 25 24 25 23 20 22 22 20 13 8 10 9 11 21 24 22 23 21 17 22 19 17 16 12
27 25 25 25 25 25 25 24 23 23 24 25 25 26 25 25 25 25 23 22 23 24 23 22 23 22 19 13 11 13 11 12 10 21 20 20 19 15 13 17 16 17 12
27 26 25 24 24 24 23 23 23 23 24 24 24 25 25 24 22 22 23 23 22 22 22 21 20 21 20 10 14 13 15 15 19 18 15 19 18 16 10 11 14 14 10
26 27 27 25 23 23 23 22 22 22 23 23 24 24 24 24 22 21 22 22 21 22 22 21 21 20 18 11 11 13 13 13 14 11 17 17 17 13 11 9 10 11 12
26 24 24 24 24 22 20 20 22 21 23 22 24 23 22 20 22 21 21 21 20 21 20 20 19 17 17 9 11 12 13 13 9 11 15 15 13 12 7 11 8 8 10
24 22 24 23 24 22 20 21 22 21 23 21 21 21 21 20 20 20 20 19 20 22 19 17 17 17 17 12 12 12 13 11 9 11 8 8 9 9 9 10 11 8 9
24 23 22 22 21 22 21 21 21 19 20 18 16 17 17 15 18 18 18 19 19 20 19 17 17 17 15 14 13 13 12 12 11 10 8 10 12 10 10 11 10 9 10
21 20 20 20 19 19 20 20 20 20 18 14 15 16 15 12 15 16 17 17 18 16 18 16 16 15 14 14 14 14 11 11 11 9 5 15 18 23 13 12 11 14 11
21 19 19 18 17 13 12 17 17 15 19 14 13 14 13 9 10 12 12 14 13 14 15 16 15 15 14 13 11 11 5 11 12 8 8 5 15 24 11 12 14 10 12
23 22 21 17 15 10 7 5 11 13 15 14 14 13 12 13 11 11 12 11 13 14 14 14 13 12 11 12 10 11 12 17 9 11 8 6 4 22 19 9 19 15 13
22 22 21 19 15 12 7 7 5 19 6 15 13 13 12 11 11 8 8 9 11 12 12 11 11 10 10 10 10 9 12 10 12 14 14 16 25 14 7 28 27 8 18
20 21 20 17 16 13 5 6 6 7 22 5 8 12 11 11 10 10 12 11 8 10 11 10 9 8 9 10 10 12 12 11 13 13 14 17 15 7 3 6 20 26 7
19 20 20 19 17 16 13 5 10 14 8 2 4 8 11 11 11 11 10 10 10 9 8 8 7 12 8 11 11 11 9 12 12 14 13 13 17 15 9 3 5 4 32
17 20 20 20 19 20 19 24 16 13 11 7 5 8 9 10 8 10 10 11 13 8 9 9 8 11 13 13 12 10 12 11 13 12 11 12 13 11 12 10 2 19 28
17 19 20 20 21 21 20 19 19 18 17 9 12 10 9 9 8 11 11 12 12 10 10 10 8 7 9 13 11 14 12 9 10 12 9 9 10 9 8 13 15 13 21
17 18 20 20 21 22 21 19 21 22 19 17 14 12 13 11 11 12 13 11 10 8 9 6 8 8 11 10 11 8 9 10 9 14 12 8 7 7 7 9 14 20 23
17 18 18 18 19 21 23 25 22 20 19 15 16 15 11 11 10 10 12 13 12 9 9 8 7 7 9 8 8 6 5 7 7 12 5 5 6 7 7 9 13 19 26
Wind_Direction
130 131 127 126 117 123 122 111 118 101 150 169 39 58 77 78 58 48 49 51 136 174 174 170 165 151 142 127 80 54 51 55 56 59 60 68 125 145 64 64 58 60 66
122 127 122 117 110 97 102 107 107 105 147 161 146 94 87 93 86 22 187 186 178 58 146 166 159 152 121 104 85 82 58 56 59 59 57 60 152 133 65 56 57 54 53
118 120 118 114 104 95 94 99 106 94 122 131 126 123 108 103 106 149 166 173 170 168 158 165 162 88 59 75 59 63 66 71 76 58 49 128 55 59 63 53 54 52 55
115 116 114 110 105 99 97 98 102 98 108 113 94 115 128 118 120 143 164 164 164 168 169 168 167 60 145 70 128 91 105 113 101 57 53 154 49 59 62 55 54 56 51
112 112 110 107 105 104 99 100 107 104 105 111 138 127 131 125 130 136 147 151 158 168 172 171 55 49 172 150 47 133 158 150 145 125 65 56 117 56 59 59 60 49 47
106 108 109 103 104 105 103 102 113 116 106 114 124 114 130 125 128 129 133 143 160 176 173 180 38 179 179 40 33 7 26 160 72 66 58 53 179 64 60 58 54 49 52
106 110 109 106 103 102 102 103 112 116 111 110 102 127 148 125 120 112 126 119 108 107 38 37 25 203 24 36 349 1 70 155 61 68 68 67 44 60 54 48 50 41 51
106 110 110 108 107 101 102 100 96 105 110 112 93 96 98 112 110 103 123 108 95 85 73 56 48 23 357 341 27 52 347 298 108 68 76 77 71 66 61 57 47 41 39
102 107 107 111 109 107 101 96 97 98 98 103 106 100 93 99 106 99 97 102 86 72 68 61 58 63 65 18 318 37 81 88 85 53 76 88 70 73 73 70 45 44 30
101 108 107 111 111 110 110 101 94 93 100 104 105 96 95 99 101 99 105 98 90 99 83 68 77 79 78 43 2 11 354 13 88 127 92 94 86 74 90 77 65 60 38
109 110 109 112 114 113 111 106 98 95 99 106 107 104 98 101 105 106 99 92 98 103 97 82 86 79 71 34 18 9 350 29 23 94 93 95 89 72 62 76 69 69 47
115 115 116 116 117 114 111 110 107 107 109 106 112 118 124 103 96 96 101 100 99 99 105 86 81 88 74 21 51 9 14 70 90 113 79 102 91 77 41 50 64 60 41
120 120 123 121 117 121 111 111 115 115 118 118 124 116 106 105 97 95 100 103 103 109 115 107 97 102 83 36 357 15 16 5 68 33 96 104 96 74 61 36 44 55 59
124 123 122 122 120 119 112 112 121 118 126 119 130 121 113 106 108 101 111 111 113 115 112 124 120 107 143 3 356 16 18 21 38 33 98 104 87 74 31 67 42 43 59
126 122 127 122 124 120 119 119 126 124 131 117 120 123 124 117 110 108 117 113 117 129 108 86 90 104 84 14 5 10 18 14 10 26 29 29 58 57 60 73 89 59 62
132 130 130 126 124 126 125 128 131 120 125 121 107 103 108 96 124 115 114 118 125 128 126 114 93 96 76 53 34 13 21 20 338 342 13 333 294 92 95 95 96 87 95
130 124 130 128 125 123 129 127 129 130 121 106 108 108 105 77 108 119 126 130 130 115 117 98 91 84 76 50 17 336 7 8 11 15 349 311 277 222 134 125 118 131 120
132 125 127 125 119 108 103 123 123 124 137 113 104 110 98 63 70 87 81 107 105 97 103 102 97 102 90 102 105 151 330 354 340 13 16 84 270 194 143 147 149 132 136
136 131 134 130 132 116 101 98 115 272 124 116 110 108 99 93 95 100 107 80 105 111 107 106 98 91 78 77 109 130 153 197 119 147 335 15 67 260 279 170 173 157 150
138 138 137 134 129 127 114 114 117 255 347 123 114 112 107 91 87 66 73 85 88 110 102 102 92 82 84 83 124 121 161 150 154 167 165 166 196 304 314 229 203 157 169
137 138 140 126 136 132 122 132 131 129 245 52 89 119 114 101 90 86 107 96 75 104 112 105 94 68 83 92 106 182 181 145 156 161 160 171 170 151 84 313 274 260 202
139 140 142 139 137 140 142 149 134 146 300 61 0 118 120 116 116 109 108 110 97 90 93 104 64 8 70 125 105 147 198 358 90 147 135 143 172 167 155 135 134 233 222
143 146 144 145 142 146 141 155 145 139 141 131 109 128 129 121 112 123 127 131 141 108 118 123 102 52 164 153 150 99 70 82 44 69 128 140 146 150 159 167 259 182 211
149 148 146 146 149 147 146 144 152 153 154 134 146 137 138 138 129 141 140 144 143 141 141 146 132 106 101 162 149 177 176 98 67 44 69 117 134 146 154 176 182 182 188
151 149 150 148 151 156 156 155 159 166 161 161 146 146 153 149 145 148 157 151 148 133 142 118 135 138 147 152 158 108 159 174 173 355 4 78 106 129 130 167 174 187 192
153 152 149 149 154 158 164 169 167 167 164 155 160 159 150 151 152 153 157 166 166 159 162 160 150 150 166 165 156 149 106 56 53 15 143 53 74 66 134 145 174 190 200